Location: Eymir
(36.7333°N, 29.7833°E)
Time: 18:59:35
(UTC+00:00)

VELOX 1 - Visible Passes

Search period start: 17 May 2026 00:00
Search period end: 27 May 2026 00:00
Orbit: 569 x 580 km, 98.3° (Epoch: 17 May)

Date Brightness Start Highest point End Pass type
(mag) Time Alt. Az. Time Alt. Az. Time Alt. Az.
17 May ? 21:13:45 10° NNE 21:14:53 18° NNE 21:14:53 18° NNE visible
18 May ? 21:16:55 10° NNE 21:18:10 19° NNE 21:18:10 19° NNE visible
19 May ? 21:20:05 10° NNE 21:21:26 20° NNE 21:21:26 20° NNE visible
20 May ? 21:23:15 10° NNE 21:24:42 21° NNE 21:24:42 21° NNE visible
21 May ? 21:26:26 10° NNE 21:27:58 22° NNE 21:27:58 22° NNE visible
22 May ? 21:29:35 10° N 21:31:13 23° N 21:31:13 23° N visible
23 May ? 21:32:45 10° N 21:34:28 24° N 21:34:28 24° N visible
24 May ? 21:35:56 10° N 21:37:43 25° N 21:37:43 25° N visible
25 May ? 21:39:06 10° N 21:40:56 25° N 21:40:56 25° N visible
26 May ? 21:42:15 10° N 21:44:10 26° N 21:44:10 26° N visible
